Weather History for KLVM - November, 2011

Change the Weather History Date:

Wednesday, November 9, 2011

  Actual Average Record
Temperature  
Mean Temperature 37 °F 37 °F  
Max Temperature 44 °F 47 °F 69 °F (2007)
Min Temperature 30 °F 26 °F -5 °F (1966)
Degree Days  
Heating Degree Days 28 28  
Month to date heating degree days 241  
Since 1 July heating degree days 1269  
Cooling Degree Days 0 0  
Month to date cooling degree days 0  
Year to date cooling degree days 230  
Moisture  
Dew Point 16 °F    
Average Humidity 44    
Maximum Humidity 55    
Minimum Humidity 32    
Precipitation  
Precipitation 0.00 in 0.02 in 0.41 in (2012)
Month to date precipitation 0.18  
Year to date precipitation 13.88  
Sea Level Pressure  
Sea Level Pressure 30.42 in    
Wind  
Wind Speed 20 mph (WSW)    
Max Wind Speed 28 mph    
Max Gust Speed 39 mph    
Visibility 10 miles    
Events      
T = Trace of Precipitation, MM = Missing Value Source: NWS Daily Summary

Daily Weather History Graph

Daily Weather History Graph

Search for Another Location

Airport or City:

Trip Planner

Search our weather history database for the weather conditions in past years. The results will help you decide how hot, cold, wet, or windy it might be!

Date:

Astronomy

Nov. 09, 2011 Rise Set
Actual Time 7:12 AM MST 4:57 PM MST
Civil Twilight 6:40 AM MST 5:29 PM MST
Nautical Twilight 6:05 AM MST 6:05 PM MST
Astronomical Twilight 5:30 AM MST 6:39 PM MST
Moon 4:10 PM MST (11/9) 6:11 AM MST (11/9)
Length of Visible Light 10h 48m
Length of Day
9h 45m
Waxing Gibbous, 99% of the Moon is Illuminated
Nov 9
Waxing Gibbous
Nov 10
Full
Nov 18
Last Quarter
Nov 24
New
Dec 2
First Quarter

Hourly Weather History & Observations

Time (MST) Temp. Windchill Dew Point Humidity Pressure Visibility Wind Dir Wind Speed Gust Speed Precip Events Conditions
12:53 AM 33.1 °F 21.2 °F 15.1 °F 48% 30.41 in 10.0 mi WSW 20.7 mph 28.8 mph N/A   Clear
1:53 AM 30.9 °F 20.7 °F 16.0 °F 54% 30.43 in 10.0 mi West 13.8 mph 20.7 mph N/A   Clear
2:53 AM 32.0 °F 18.9 °F 15.1 °F 50% 30.43 in 10.0 mi SW 24.2 mph 32.2 mph N/A   Clear
3:53 AM 30.2 °F 18.1 °F 15.8 °F 55% 30.36 in 10.0 mi WSW 18.4 mph - N/A   Clear
4:53 AM 30.9 °F 20.2 °F 15.1 °F 52% 30.45 in 10.0 mi West 15.0 mph 28.8 mph N/A   Clear
5:53 AM 30.9 °F 18.1 °F 15.1 °F 52% 30.48 in 10.0 mi SW 21.9 mph 29.9 mph N/A   Clear
6:53 AM 30.0 °F 17.9 °F 15.1 °F 54% 30.50 in 10.0 mi WSW 18.4 mph - N/A   Clear
7:53 AM 30.9 °F 18.7 °F 15.1 °F 52% 30.50 in 10.0 mi WSW 19.6 mph 26.5 mph N/A   Clear
8:53 AM 33.1 °F 21.5 °F 15.1 °F 48% 30.50 in 10.0 mi SW 19.6 mph 28.8 mph N/A   Clear
9:53 AM 36.0 °F 25.6 °F 15.1 °F 43% 30.49 in 10.0 mi SW 18.4 mph - N/A   Clear
10:53 AM 37.4 °F 26.6 °F 15.8 °F 41% 30.41 in 10.0 mi WSW 21.9 mph 29.9 mph N/A   Clear
11:53 AM 39.9 °F 31.1 °F 16.0 °F 38% 30.46 in 10.0 mi WSW 17.3 mph 27.6 mph N/A   Clear
12:53 PM 42.1 °F 33.3 °F 17.1 °F 37% 30.43 in 10.0 mi SW 19.6 mph 25.3 mph N/A   Clear
1:53 PM 44.1 °F 36.8 °F 16.0 °F 32% 30.41 in 10.0 mi SW 16.1 mph 29.9 mph N/A   Clear
2:53 PM 44.1 °F 36.2 °F 16.0 °F 32% 30.40 in 10.0 mi SW 18.4 mph 29.9 mph N/A   Clear
3:53 PM 42.1 °F 33.1 °F 16.0 °F 35% 30.40 in 10.0 mi SW 20.7 mph 27.6 mph N/A   Clear
4:53 PM 39.0 °F 31.0 °F 17.1 °F 41% 30.40 in 10.0 mi SW 13.8 mph - N/A   Clear
5:53 PM 37.9 °F 27.3 °F 16.0 °F 41% 30.39 in 10.0 mi SW 21.9 mph 33.4 mph N/A   Clear
6:53 PM 37.9 °F 26.6 °F 16.0 °F 41% 30.40 in 10.0 mi SW 25.3 mph 35.7 mph N/A   Clear
7:53 PM 37.0 °F 24.9 °F 16.0 °F 42% 30.40 in 10.0 mi SW 27.6 mph 39.1 mph N/A   Clear
8:53 PM 36.0 °F 23.9 °F 16.0 °F 44% 30.39 in 10.0 mi SW 25.3 mph 32.2 mph N/A   Clear
9:53 PM 35.1 °F 22.7 °F 16.0 °F 46% 30.38 in 10.0 mi WSW 25.3 mph 32.2 mph N/A   Clear
10:53 PM 37.0 °F 25.9 °F 16.0 °F 42% 30.35 in 10.0 mi SW 23.0 mph 35.7 mph N/A   Clear
11:53 PM 35.1 °F 23.5 °F 16.0 °F 46% 30.34 in 10.0 mi WSW 21.9 mph 28.8 mph N/A   Clear